Regional Weather Roundup
Issued by NWS

Home | Current Version | Previous Version | Graphics & Text | Print | Product List | Glossary On
Versions: 1 2 3 4 5 6 7 8 9 10 11 12 13 14 15 16 17 18 19 20 21 22 23 24 25 26 27 28 29 30 31 32 33 34 35 36 37 38 39 40 41 42 43 44 45 46 47 48 49 50
000
ASUS43 KBIS 021710
RWRND

NORTH DAKOTA REGIONAL WEATHER ROUNDUP
NATIONAL WEATHER SERVICE BISMARCK ND
1200 PM CDT MON MAY 02 2016

NOTE: "FAIR" INDICATES FEW OR NO CLOUDS BELOW 12,000 FEET WITH NO
SIGNIFICANT WEATHER AND/OR OBSTRUCTIONS TO VISIBILITY.


NDZ001>003-009>011-017-021800-
NORTHWEST NORTH DAKOTA

CITY           SKY/WX    TMP DP  RH WIND       PRES   REMARKS
WILLISTON      SUNNY     68  36  30 N14       30.02F
MINOT          SUNNY     68  38  33 NE12      29.99R
MINOT AFB      SUNNY     64  40  41 NE13      29.98R
$$

NDZ018>021-031>035-040>046-021800-
SOUTHWEST NORTH DAKOTA

CITY           SKY/WX    TMP DP  RH WIND       PRES   REMARKS
BISMARCK       PTSUNNY   56  45  66 SE13      30.01F
DICKINSON      PTSUNNY   63  35  35 NW22G30   29.99F
GARRISON         N/A     63  40  42 NE9G17    29.97R
HETTINGER ARPT LGT RAIN  62  34  35 NW23G32   30.03F
$$

NDZ004>008-012>016-024-026-027-054-021800-
NORTHEAST NORTH DAKOTA

CITY           SKY/WX    TMP DP  RH WIND       PRES   REMARKS
GRAND FORKS    MOSUNNY   66  30  26 SE7       30.01S
GRND FRKS AFB  SUNNY     66  30  26 E9        30.01F
DEVILS LAKE    MOSUNNY   61  37  41 S9        30.02S
$$

NDZ022-023-025-028>030-036>039-047>053-021800-
SOUTHEAST NORTH DAKOTA

CITY           SKY/WX    TMP DP  RH WIND       PRES   REMARKS
FARGO          SUNNY     66  29  24 VRB3      30.02S
JAMESTOWN      CLOUDY    55  44  66 S13       30.02S
$$




USA.gov is the U.S. government's official web portal to all federal, state and local government web resources and services.